Flag for Australia

Past Weather in Wiluna, Western Australia, Australia — Yesterday and Last 2 Weeks

Now
67 °F

Mild.


Feels Like: 67 °F
Forecast: 74 / 44 °F
Wind: 13 mph from West

Location: Leonora Leinster Aerodrome Aws

Current Time: Jul 14, 2020 at 8:28:55 pm

Latest Report: Jul 14, 2020 at 6:00 pm


Visibility: N/A

Pressure: 30.03 "Hg (28.26 "Hg at 521m altitude)

Humidity: 50%

Dew Point: 48 °F

Location of WilunaLocation

Past Weather in Wiluna — Graph

°F

Wiluna Temperature Yesterday

Maximum temperature yesterday: 70 °F (at 2:00 pm)
Minimum temperature yesterday: 47 °F (at 6:00 am)
Average temperature yesterday: 58 °F

High & Low Weather Summary for the Past Weeks

 TemperatureHumidityPressure
High79 °F (Jul 5, 3:00 pm)99% (Jun 30, 6:00 am)30.42 "Hg (Jun 30, 6:00 am)
Low35 °F (Jul 11, 5:00 am)9% (Jul 13, 3:00 pm)29.96 "Hg (Jul 14, 2:00 pm)
Average56 °F48%30.18 "Hg
* Reported Jun 29 6:00 pm — Jul 14 6:00 pm, Wiluna. Weather by CustomWeather, © 2020

Note: Actual official high and low records may vary slightly from our data, if they occured in-between our weather recording intervals... More about our weather records

Wiluna Weather History for the Previous 24 Hours

Scroll right to see more
 ConditionsComfort  
Time TempWeatherWind HumidityBarometerVisibility
6:00 pm
Tue, Jul 14
67 °FMild.13 mph50%30.03 "HgN/A
5:00 pm72 °FMild.15 mph32%30.00 "HgN/A
3:00 pm76 °FPassing clouds.15 mph15%29.96 "HgN/A
2:00 pm75 °FMild.20 mph11%29.96 "HgN/A
12:00 pm75 °FMild.17 mph10%29.99 "HgN/A
11:00 am73 °FMild.17 mph9%30.01 "HgN/A
9:00 am61 °FRefreshingly cool.15 mph16%30.03 "HgN/A
8:00 am55 °FCool.14 mph21%30.02 "HgN/A
6:00 am52 °FCool.14 mph22%30.02 "HgN/A
5:00 am51 °FCool.13 mph23%30.01 "HgN/A
3:00 am53 °FCool.12 mph21%30.01 "HgN/A
2:00 am52 °FCool.10 mph22%30.01 "HgN/A
12:00 am55 °FCool.10 mph20%30.03 "HgN/A
11:00 pm
Mon, Jul 13
55 °FCool.8 mph19%30.03 "HgN/A
9:00 pm58 °FRefreshingly cool.9 mph20%30.06 "HgN/A
8:00 pm57 °FRefreshingly cool.8 mph19%30.06 "HgN/A
Weather by CustomWeather, © 2020

See weather overview